Location: Cedar Brake
(32.2526°N, 97.8459°W)
Time: 17:26:42
(UTC+00:00)

ATLAS 3B R/B - Pass Details

Date: 22 April 2026
Orbit: 937 x 1257 km, 63.8° (Epoch: 9 May)

Event Time Altitude Azimuth Distance (km) Brightness Sun altitude
Rises 06:43:13 0° 337° (NNW) 4,183 6.4 -45.4°
Reaches altitude 10° 06:46:20 10° 345° (NNW) 3,188 5.7 -45.3°
Enters shadow 06:50:57 31° 15° (NNE) 1,968 4.3 -45.2°
